Погода в Наурузове

Россия / Оренбургская область     53°17′27″N   54°09′08″E
темп.,
°C
ветер,
м/с
пор.,
м/с
влажн.,
%
обл.,
%
осадки,
мм/ч
давл.,
гПа
погр.,
м
11 апреля, вс
вс1123:00+6юв102091100 0.0 1029352
02:00+5юв91984100 0.0 1029338
05:00+4юв8187273 0.0 1030318
08:00+3ююв7168093 0.0 1032320
11:00+7ююв8157721 0.0 1032368
14:00+12ююв81162100 0.0 1032505
17:00+14ююв7106024 0.0 1031616
20:00+9юв598020 0.0 1032170
12 апреля, пн
пн1223:00+6вюв369256 0.0 103493
02:00+5юв369199 0.0 103490
05:00+4вюв229042 0.0 103510
08:00+5вюв2285100 0.0 103630
11:00+10вюв2264100 0.0 1035283
14:00+14в225298 0.0 1035608
17:00+16в224742 0.0 1034870
20:00+13всв226426 0.0 103419
13 апреля, вт
вт1323:00+10всв227013 0.0 103514
02:00+8в227585 0.0 103611
05:00+7вюв228248 0.0 103611
08:00+7вюв24785 0.0 103792
11:00+12юв564831 0.0 1037494
14:00+15юв55345 0.0 1036834
17:00+16юв45325 0.0 1035971
20:00+13юв33515 0.0 103434
14 апреля, ср
ср1423:00+10юв35735 0.0 103484
02:00+7юв35905 0.0 103481
05:00+6юв22915 0.0 103410
08:00+7вюв23905 0.0 103388
11:00+12вюв34665 0.0 1031524
14:00+16вюв34495 0.0 1030918
17:00+17вюв34444 0.0 10281116
20:00+14в22570 0.0 102614
15 апреля, чт
чт1523:00+12в22675 0.0 102610
02:00+10юв22715 0.0 102610
05:00+8вюв22685 0.0 102510
08:00+9вюв12665 0.0 102514
11:00+14вюв34455 0.0 1023557
14:00+17юв44335 0.0 10211055
17:00+18ююв34320 0.0 10201293
20:00+14ююв22430 0.0 101911